Location: Newark
(13.8117°N, 3.6025°W)
Time: 20:19:14
(UTC+00:00)

Vanguard 1 - Visible Passes

Search period start: 19 August 2019 00:00
Search period end: 29 August 2019 00:00
Orbit: 655 x 3829 km, 34.2° (Epoch: 17 August)

Date Brightness Start Highest point End Pass type
(mag) Time Alt. Az. Time Alt. Az. Time Alt. Az.
19 Aug 13.5 05:31:27 10° S 05:35:23 11° SSE 05:38:45 10° SE visible
19 Aug 12.4 19:39:45 10° WNW 19:49:39 49° SSW 20:05:20 14° SE visible
19 Aug 13.6 22:06:32 10° WSW 22:16:44 19° SSW 22:18:05 18° SSW visible
20 Aug 12.7 20:01:31 10° W 20:11:28 37° SSW 20:25:34 14° SSE visible
20 Aug 13.9 22:32:21 10° SW 22:38:20 13° SSW 22:38:20 13° SSW visible
21 Aug 13.1 20:23:47 10° W 20:33:30 28° SSW 20:45:51 14° SSE visible
22 Aug 13.8 04:10:29 10° S 04:15:15 11° SSE 04:19:24 10° SE visible
22 Aug 13.4 20:46:50 10° WSW 20:55:47 21° SSW 21:06:07 13° S visible
23 Aug 13.5 04:28:16 10° S 04:37:55 17° SSE 04:45:09 10° ESE visible
23 Aug 12.3 18:44:04 10° W 18:52:02 42° SSW 19:06:06 10° SE visible
23 Aug 13.7 21:11:14 10° SW 21:18:23 15° SSW 21:26:24 11° S visible
24 Aug 13.2 04:47:44 10° SSW 05:00:15 23° SSE 05:08:39 10° ESE visible
24 Aug 12.7 19:05:56 10° W 19:13:49 30° SSW 19:26:40 10° SSE visible
25 Aug 14.0 02:50:08 10° S 02:54:05 11° SSE 02:57:44 10° SSE visible
25 Aug 12.9 05:07:53 10° SSW 05:22:19 32° SSE 05:31:09 10° E visible
25 Aug 13.1 19:28:25 10° WSW 19:35:49 22° SSW 19:46:45 10° SSE visible
26 Aug 13.8 03:07:05 10° S 03:17:12 16° SSE 03:25:28 10° SE visible
26 Aug 12.5 05:28:29 10° SW 05:44:10 43° SSE 05:53:04 10° E visible
26 Aug 13.4 19:51:58 10° SW 19:58:04 15° SSW 20:06:02 10° S visible
27 Aug 13.5 03:27:10 11° SSW 03:39:53 22° SSE 03:49:54 10° ESE visible
27 Aug 13.7 20:19:04 10° SSW 20:20:38 10° SSW 20:22:15 10° SSW visible
28 Aug 13.2 03:47:18 12° SSW 04:02:14 29° SSE 04:13:01 10° E visible
